COSMOS 2251 DEB

Satellite information

Favourite Embed

Satellite Type and Status

DEBRISIN ORBIT

Key statistics

Satellite COSMOS 2251 DEB at a glance.

Uptime

11868

Days in orbit

Revolutions

≈ 14.7

Per day

Orbit

LEO

Low Earth Orbit

Inclination

74.0

Latest

Satellite identification and parameters

Extended collection of information and parameters for COSMOS 2251 DEB.

Object identification

Identified? True

Debris? True

Object name: COSMOS 2251 DEB

International designator: 1993-036UW

Object number (NORAD): 34560

Object ID (CCSDS): 34560

Country: COMMONWEALTH OF INDEPENDENT STATES (CIS)

Current information (Y/N): Y

RCS size: SMALL

Orbital parameters

Period: 97.82 minutes

Inclination: 74.0167 deg

SMA: 7032.512 km

Apoapsis: 664.704 km

Periapsis: 644.05 km

RAAN: 143.9021 deg

Eccentricy: 0.00146847

Argument of periapsis: 225.3472 deg

Mean anomaly: 261.9903 deg

Mean motion: 14.72099094 rev/day

Mean motion (dot): 0.0002184 rev/day2

B* drag term: 0.0034589559 1/REarth

Two-line elements (TLE)

Creation date: Dec. 12, 2025, 3:16 a.m.

Reference frame: TEME

Reference center: EARTH

Epoch: Dec. 11, 2025, 7:56 p.m. UTC

TLE line 0: 0 COSMOS 2251 DEB

TLE line 1: 1 34560U 93036UW 25345.83105199 .00021840 00000-0 34590-2 0 9992

TLE line 2: 2 34560 74.0167 143.9021 0014685 225.3472 261.9903 14.72099094882388

Live tracking on map

Real-time ground track for satellite COSMOS 2251 DEB.

In-orbit conjunctions

A list of the most updated potential collisions computed for object COSMOS 2251 DEB.

Target Orbit TCA Probability of collision Miss distance Type
OV2-1 LEO 2025-02-06 15:22:52 0.0004007187 316.0 (m) PAYLOAD
DELTA 1 R/B SSO 2024-08-22 18:41:43 0.0001182886 59.0 (m) ROCKET BODY
DELTA 1 DEB SSO 2024-05-28 18:00:33 0.0003838666 69.0 (m) DEBRIS

Associated space launch

Military communications satellite. Destroyed in a collision with Iridium 33.

COSMOS 2251 DEB was lifted into orbit during the mission ‘Kosmos-3M | Strela-2M 51’, on board a Kosmos-3M space rocket.

The launch took place on June 16, 1993, 4:17 a.m. from 132/1 (132L).

For more information about the launch, click the button.

Launch to space Kosmos-3M | Strela-2M 51
Kosmos-3M | Strela-2M 51

Agency: N/A

Status: Launch Successful

Launch date: June 16, 1993, 4:17 a.m. UTC

Rocket: Kosmos-3M

Launch pad: 132/1 (132L)

Location: Plesetsk Cosmodrome, Russian Federation

...

Latest news about this satellite

There are no fresh news available about this satellite. Check back as we update our databases every day.


Newsletter sign-up

Weekly statistics, charts and insights to help you stay on top of the space industry.